Location: Ostrava
(49.8330°N, 18.2830°E)
Time: 13:12:31
(UTC+01:00)

Lacrosse 5 - Visible Passes

Search period start: 12 December 2017 00:00
Search period end: 22 December 2017 00:00
Orbit: 715 x 723 km, 57.0° (Epoch: 04 December)

Date Brightness Start Highest point End Pass type
(mag) Time Alt. Az. Time Alt. Az. Time Alt. Az.
13 Dec 5.1 16:51:55 10° W 16:54:45 15° WSW 16:57:34 10° SSW visible
15 Dec 5.4 06:31:13 10° SSE 06:33:26 13° ESE 06:35:39 10° E visible
17 Dec 4.7 06:25:43 10° S 06:29:34 22° SE 06:33:26 10° ENE visible
18 Dec 5.0 05:34:38 10° SE 05:36:48 13° ESE 05:38:58 10° E visible
19 Dec 3.6 06:21:14 10° SSW 06:25:49 36° SE 06:30:27 10° ENE visible
20 Dec 4.4 05:29:06 10° S 05:32:56 22° SE 05:36:46 10° ENE visible
21 Dec 4.8 04:38:03 10° SE 04:40:10 13° ESE 04:42:16 10° E visible
21 Dec 2.6 06:17:14 10° SW 06:22:12 57° SE 06:27:11 10° ENE visible
